カタログに戻る

STARLINK-32506

運用中通信VLEO
NORAD 62167·PAYLOAD·🇺🇸 United States

打ち上げ Nov 30, 2024 から Vandenberg Space Force Base

Loading…

次のパス (今後24時間)

TLE

最新Source: CelesTrak SupGP

元期: Sep 15, 2026, 02:48 UTC

1 62167C 24225E   26258.11715278 -.00033341  00000+0 -27947-2 0  2586
2 62167  70.0019  47.0212 0002953 268.0444 138.2722 14.98340530    17

AllMySatでSTARLINK-32506をリアルタイム追跡

Download on the App Store